Location: Bronnegerveen
(52.9548°N, 6.8388°E)
Time: 02:21:03
(UTC+00:00)

Cosmos 1328 - Pass Details

Date: 15 June 2025
Orbit: 474 x 490 km, 82.5° (Epoch: 07 July)

Event Time Altitude Azimuth Distance (km) Brightness Sun altitude
Exits shadow 00:02:40 24° 192° (SSW) 1,014 4.6 -13.5°
Maximum altitude 00:04:42 86° 278° (W) 484 3.5 -13.4°
Drops below altitude 10° 00:08:20 10° 10° (N) 1,657 7.8 -13.4°
Sets 00:10:26 0° 11° (N) 2,542 9.3 -13.3°
